Wind_Speed
31 36 46 45 39 33 23 21 24 21 20 29 25 35 33 22 32 33 29 21 15 16 18 25 24 27 25 23 18 21 26 26 25 25 23 20 15 12 9 7 7 6 6 6
28 44 42 38 34 29 27 25 30 26 20 26 29 33 37 30 28 35 27 19 19 17 22 25 27 27 27 23 20 21 24 26 26 25 22 19 15 13 10 10 9 8 6 5
42 20 38 36 33 30 34 35 35 33 21 16 19 28 33 32 33 33 30 26 24 25 26 26 27 26 26 24 22 23 24 26 27 25 25 23 22 20 16 11 8 8 8 7
40 43 14 37 35 35 36 40 34 34 22 15 23 15 40 34 30 35 31 31 33 26 31 26 23 28 27 24 22 22 24 27 28 28 27 25 19 15 10 9 10 10 10 9
47 32 39 31 43 35 41 34 32 34 30 27 23 11 39 36 35 34 33 30 40 28 31 29 26 20 19 24 25 24 25 27 30 30 29 26 23 17 16 15 14 12 11 9
39 38 25 40 30 34 29 28 33 30 29 21 32 24 20 40 41 37 31 34 32 34 30 34 31 19 19 22 26 28 28 28 30 32 31 28 24 21 20 17 14 13 10 8
36 44 38 36 32 34 35 32 18 9 14 9 31 24 36 25 33 32 30 35 31 39 30 31 34 32 21 21 24 29 32 33 32 33 33 29 26 24 21 18 16 13 9 6
15 33 45 37 44 34 42 42 24 12 5 12 36 20 43 32 25 33 23 33 36 36 32 32 31 31 24 20 22 29 34 35 34 33 33 32 29 26 22 20 17 14 12 9
12 22 19 43 35 43 41 44 45 27 12 9 15 34 35 35 29 25 24 27 47 32 33 32 32 33 25 19 16 24 32 34 34 32 31 31 30 28 24 21 19 16 13 11
12 25 33 34 32 42 46 35 33 30 16 10 7 22 34 42 40 34 27 27 36 38 32 34 32 30 28 19 15 15 27 30 30 30 31 29 30 28 25 23 21 18 15 14
18 11 29 26 36 39 47 44 32 34 26 10 4 22 30 31 35 35 34 29 37 36 37 37 31 26 28 22 19 15 22 30 31 31 31 31 30 29 28 26 23 20 18 15
21 14 20 33 33 33 27 43 41 29 21 32 23 35 23 35 27 27 18 36 34 38 38 41 30 27 31 26 20 17 22 29 31 29 29 30 29 29 30 28 25 23 20 19
21 6 15 22 30 23 28 28 41 40 34 34 20 37 24 35 29 32 35 40 42 41 33 41 32 31 30 29 24 18 23 25 30 32 31 32 32 31 30 28 27 26 23 21
26 21 17 21 20 14 20 26 27 36 35 30 41 49 42 20 18 28 25 43 46 39 33 35 36 32 31 28 23 17 21 26 28 33 33 33 31 30 30 28 27 27 25 25
22 27 19 23 28 24 21 21 25 29 42 36 36 44 41 36 24 21 28 36 38 31 36 37 32 32 32 27 25 22 23 21 23 23 24 24 26 28 28 29 29 28 28 27
17 29 25 21 15 15 12 12 21 22 40 45 29 38 27 26 18 13 28 28 29 30 31 40 36 30 35 24 26 25 24 21 22 23 21 19 19 20 20 20 21 25 28 26
22 19 22 11 6 11 7 9 9 16 33 36 46 32 18 22 21 16 25 29 27 29 32 37 35 29 35 27 22 25 22 18 18 21 20 21 23 24 24 23 23 21 22 24
25 23 16 12 8 7 12 18 12 17 15 23 27 34 39 26 27 27 26 28 28 32 31 38 40 37 37 32 28 26 26 17 11 15 17 17 19 19 21 24 25 26 24 24
21 13 10 6 9 4 11 8 11 14 22 6 14 22 20 31 38 33 33 35 35 35 37 36 35 39 41 41 39 33 30 22 19 23 22 16 15 16 19 24 25 24 26 27
12 13 15 16 5 2 14 7 8 25 30 30 25 29 35 36 42 39 37 38 40 40 40 40 38 34 36 39 38 42 43 38 32 27 22 17 19 18 16 15 20 25 28 29
19 19 16 12 10 2 18 5 8 15 14 10 23 24 28 32 37 40 39 39 39 38 39 37 35 33 32 31 33 35 36 35 35 33 27 23 22 21 19 17 16 19 28 32
6 5 5 3 1 2 7 13 18 12 8 8 16 23 23 25 28 34 39 40 39 38 36 34 33 31 33 33 32 31 32 33 34 32 25 22 26 29 28 24 21 19 20 29
19 16 9 12 11 6 11 12 30 14 13 9 11 14 19 19 26 27 30 33 35 36 36 34 32 31 31 29 27 28 30 32 34 34 31 29 30 32 30 30 29 26 23 22
29 19 11 13 5 5 3 3 20 12 10 7 5 6 10 19 23 28 31 30 32 35 36 35 33 30 31 34 35 30 28 32 32 35 36 36 36 35 32 30 30 34 33 30
29 19 25 19 10 14 9 11 12 14 9 9 8 6 9 11 19 24 28 29 29 33 38 37 33 31 29 31 38 43 40 37 35 34 35 38 40 40 39 38 36 34 35 35
32 26 30 33 24 22 14 12 21 24 24 22 20 16 14 11 12 21 24 25 26 27 26 28 30 30 27 26 29 29 38 41 45 45 44 44 46 47 47 46 46 40 35 33
Wind_Direction
204 201 206 197 202 214 225 241 240 231 216 197 229 208 209 235 229 235 228 205 190 202 195 196 201 188 190 209 204 204 193 193 196 197 196 197 194 194 195 198 180 202 200 193
193 212 206 200 203 219 228 234 232 227 228 225 214 222 231 219 220 223 223 236 220 189 197 193 194 197 200 202 197 197 194 196 198 199 202 200 202 204 208 215 187 192 206 206
203 219 203 207 209 221 224 226 232 239 235 289 229 224 217 201 207 210 221 235 243 212 207 200 201 202 207 207 202 195 193 194 202 202 203 203 204 204 207 208 197 192 205 216
225 211 214 215 219 219 229 213 233 245 260 263 226 203 202 210 215 217 225 237 226 227 218 210 208 207 215 209 207 204 198 195 199 204 205 208 210 212 212 214 218 206 209 220
221 228 215 224 222 219 229 221 235 251 256 259 242 263 213 204 207 224 227 236 222 220 219 220 218 209 201 218 213 207 205 203 200 203 207 208 207 204 205 214 223 221 217 221
234 228 230 228 226 223 223 237 244 254 255 250 253 238 268 209 218 223 227 218 217 212 216 218 225 215 214 213 221 216 209 209 207 205 207 209 204 204 210 211 216 224 229 229
237 232 229 234 235 228 226 226 233 262 242 234 248 239 226 245 234 239 234 222 221 212 208 206 212 217 207 206 213 217 212 209 209 209 209 210 207 207 212 212 209 214 215 222
256 242 228 222 228 219 223 220 213 214 197 231 242 223 238 239 243 231 243 238 230 214 212 211 192 205 208 206 207 210 212 210 209 208 209 208 205 207 210 213 211 208 202 206
332 251 236 230 221 223 224 226 224 230 239 238 229 241 247 238 241 232 258 240 226 220 216 215 206 202 207 206 199 210 211 215 213 210 211 210 206 205 208 210 213 213 209 209
326 309 225 221 228 230 228 224 214 216 228 244 245 221 236 233 233 229 240 219 215 227 220 214 213 209 210 211 204 203 209 216 217 210 211 209 206 206 207 210 213 214 217 216
324 305 249 242 225 220 222 221 223 227 224 219 223 253 228 238 239 234 237 236 214 221 227 219 214 219 216 213 199 201 204 207 213 212 209 209 208 205 207 211 213 212 218 227
282 297 303 242 225 229 234 222 222 218 215 225 234 253 239 236 239 234 266 235 227 223 225 223 215 218 217 217 209 216 205 205 209 209 206 207 211 211 211 211 213 215 218 229
269 283 322 261 244 232 237 214 222 229 223 218 215 247 252 238 243 257 269 221 220 219 230 218 213 217 218 217 212 223 217 202 207 210 208 208 210 215 217 215 215 220 224 231
256 275 247 269 261 282 274 234 228 230 212 213 221 240 246 243 269 279 218 207 210 215 211 212 213 214 214 216 213 220 213 205 201 210 213 213 214 219 223 223 224 224 229 236
267 266 278 280 285 276 257 227 222 235 222 215 226 236 246 248 277 295 185 197 210 216 210 211 209 212 209 212 210 191 193 198 199 208 212 213 220 225 227 228 231 235 237 239
264 256 315 293 254 246 250 256 233 243 226 216 227 237 245 251 251 276 187 203 199 207 215 210 207 207 204 198 203 192 204 216 218 213 208 209 214 217 224 228 230 232 238 242
234 253 308 268 156 211 216 15 230 233 222 218 222 227 222 228 218 214 192 194 201 206 209 207 202 201 208 199 191 192 200 195 205 216 219 223 228 233 234 234 232 227 229 230
231 251 283 267 315 167 128 121 109 132 168 204 216 224 237 228 192 180 180 191 192 198 197 201 205 202 205 204 200 193 197 188 204 220 213 220 226 229 231 234 232 231 230 233
245 282 266 264 297 168 138 72 37 70 70 119 204 208 212 211 191 170 163 172 179 178 182 187 191 202 208 214 215 217 218 215 225 251 245 235 237 232 228 231 233 231 230 233
224 272 262 297 303 28 5 342 76 142 62 54 106 141 160 175 191 164 162 164 164 167 167 172 176 180 190 204 214 215 224 229 231 236 229 243 276 258 239 239 234 232 232 231
209 249 272 296 268 78 14 123 147 90 20 41 73 110 142 162 166 165 172 174 173 173 174 175 177 181 185 192 198 205 211 220 226 229 242 256 257 246 247 247 242 238 231 233
106 210 359 285 317 72 34 116 137 69 109 133 100 115 124 142 156 168 177 183 184 184 183 183 184 187 189 190 192 195 203 211 218 222 217 228 234 240 249 251 253 249 245 236
47 23 17 347 307 325 45 129 136 120 122 121 138 125 139 155 171 177 176 181 188 194 193 197 202 206 205 203 198 202 206 212 218 220 221 229 236 241 248 254 258 257 252 248
6 22 333 333 327 266 12 264 144 149 153 113 157 173 163 168 172 179 182 183 188 197 206 212 215 223 228 223 221 215 215 219 221 225 227 230 236 245 250 250 257 261 260 260
4 359 345 327 317 278 268 243 243 181 222 283 287 255 221 202 186 176 185 189 192 198 205 210 217 222 227 230 233 235 232 232 230 227 228 232 236 243 248 253 260 262 260 261
6 349 345 316 309 294 242 216 255 257 256 248 262 268 266 250 226 201 193 192 194 198 204 207 215 223 228 231 235 240 243 243 242 240 237 238 241 245 249 254 260 258 259 259
Height
3103 3104 3099 3106 3115 3121 3126 3131 3132 3134 3138 3139 3141 3147 3147 3148 3151 3151 3155 3158 3159 3160 3163 3167 3171 3175 3179 3181 3185 3189 3193 3197 3201 3205 3208 3212 3215 3218 3219 3222 3222 3223 3223 3225
3101 3091 3101 3110 3115 3119 3122 3125 3125 3128 3133 3140 3139 3142 3141 3145 3144 3146 3150 3152 3157 3161 3160 3163 3167 3170 3174 3177 3181 3186 3191 3195 3199 3203 3208 3211 3214 3216 3218 3220 3221 3222 3223 3224
3091 3095 3101 3106 3110 3113 3115 3118 3120 3124 3130 3134 3136 3140 3140 3142 3145 3146 3147 3148 3154 3157 3159 3160 3162 3165 3170 3173 3178 3183 3188 3193 3197 3202 3205 3208 3211 3213 3216 3218 3221 3222 3222 3223
3089 3094 3098 3101 3102 3109 3110 3113 3119 3121 3128 3131 3131 3131 3132 3136 3138 3140 3142 3142 3147 3150 3155 3157 3160 3162 3165 3169 3174 3180 3186 3190 3194 3199 3202 3206 3209 3212 3216 3218 3219 3220 3221 3222
3076 3085 3090 3094 3094 3105 3104 3114 3117 3120 3124 3127 3128 3130 3120 3128 3130 3131 3135 3138 3141 3145 3149 3151 3155 3158 3162 3168 3170 3175 3182 3186 3191 3195 3198 3203 3206 3211 3213 3215 3216 3218 3219 3220
3074 3083 3085 3089 3095 3103 3109 3113 3114 3117 3118 3116 3118 3126 3120 3116 3119 3123 3129 3133 3135 3140 3144 3147 3151 3155 3159 3163 3167 3170 3176 3182 3187 3191 3195 3199 3203 3207 3210 3212 3215 3217 3218 3219
3069 3069 3078 3084 3090 3097 3103 3108 3109 3110 3109 3108 3111 3114 3108 3112 3114 3117 3121 3126 3131 3135 3139 3142 3146 3148 3152 3156 3160 3166 3170 3176 3182 3187 3190 3195 3199 3203 3207 3210 3213 3215 3217 3218
3061 3063 3066 3071 3077 3085 3088 3095 3096 3105 3103 3101 3101 3099 3097 3106 3109 3113 3117 3121 3126 3131 3135 3138 3139 3145 3149 3153 3157 3162 3167 3172 3177 3182 3186 3191 3195 3199 3203 3206 3210 3213 3215 3217
3060 3052 3062 3066 3072 3079 3082 3080 3091 3095 3093 3094 3091 3095 3099 3101 3105 3109 3110 3113 3119 3125 3129 3132 3135 3141 3146 3151 3153 3158 3163 3168 3172 3177 3183 3187 3191 3195 3199 3203 3206 3209 3212 3214
3066 3054 3048 3057 3068 3070 3070 3082 3086 3085 3090 3093 3085 3085 3084 3092 3097 3101 3104 3105 3112 3119 3122 3127 3132 3136 3142 3147 3152 3155 3159 3164 3169 3174 3178 3183 3187 3191 3196 3199 3203 3206 3209 3211
3064 3060 3044 3047 3048 3053 3066 3068 3073 3079 3080 3082 3087 3075 3080 3084 3090 3096 3099 3101 3107 3112 3116 3120 3126 3132 3137 3143 3149 3152 3156 3159 3164 3168 3173 3178 3182 3187 3191 3195 3199 3202 3205 3207
3061 3057 3048 3038 3043 3052 3057 3062 3069 3069 3072 3075 3075 3065 3077 3080 3085 3089 3090 3094 3099 3104 3110 3115 3122 3128 3132 3139 3145 3148 3153 3155 3160 3165 3170 3174 3178 3182 3186 3190 3194 3198 3201 3203
3057 3055 3050 3034 3038 3045 3049 3053 3060 3063 3066 3065 3073 3058 3070 3074 3077 3078 3079 3082 3088 3096 3103 3110 3117 3122 3128 3135 3140 3143 3148 3152 3156 3161 3165 3169 3172 3176 3181 3186 3190 3193 3196 3199
3052 3054 3053 3043 3036 3044 3041 3042 3049 3055 3056 3059 3061 3056 3064 3068 3069 3067 3065 3072 3081 3089 3095 3102 3110 3118 3125 3132 3136 3139 3144 3148 3152 3156 3159 3164 3169 3172 3176 3182 3185 3189 3192 3194
3047 3048 3047 3039 3035 3035 3033 3035 3038 3042 3049 3052 3060 3060 3063 3065 3065 3062 3064 3070 3077 3082 3089 3097 3105 3114 3122 3128 3133 3137 3142 3147 3150 3153 3156 3161 3165 3169 3173 3177 3180 3183 3186 3189
3044 3043 3038 3026 3029 3031 3030 3031 3033 3036 3042 3048 3057 3057 3064 3067 3065 3062 3064 3068 3074 3080 3085 3093 3102 3109 3117 3123 3128 3134 3139 3144 3148 3152 3155 3159 3162 3166 3169 3172 3175 3179 3181 3184
3037 3037 3038 3023 3023 3026 3030 3029 3030 3030 3041 3048 3052 3057 3061 3066 3064 3064 3065 3067 3071 3077 3082 3089 3096 3104 3112 3119 3125 3131 3136 3141 3144 3148 3152 3155 3159 3161 3165 3168 3171 3173 3176 3180
3031 3035 3036 3020 3018 3021 3025 3025 3025 3024 3031 3037 3041 3051 3056 3061 3061 3061 3062 3065 3069 3075 3079 3084 3092 3100 3108 3116 3121 3128 3133 3138 3141 3144 3149 3152 3154 3157 3160 3162 3165 3168 3172 3174
3025 3029 3027 3020 3016 3013 3015 3017 3022 3024 3032 3033 3036 3045 3049 3054 3055 3058 3061 3064 3067 3071 3075 3080 3086 3094 3103 3110 3116 3122 3128 3134 3138 3141 3144 3148 3151 3154 3156 3157 3160 3163 3165 3168
3022 3023 3026 3019 3017 3012 3020 3014 3018 3020 3029 3034 3032 3039 3045 3051 3051 3055 3059 3063 3066 3071 3076 3080 3085 3090 3096 3102 3109 3116 3122 3128 3133 3137 3138 3142 3145 3147 3150 3152 3154 3157 3159 3162
3020 3020 3019 3019 3018 3014 3015 3010 3015 3023 3047 3037 3037 3038 3039 3043 3044 3050 3057 3062 3066 3070 3075 3081 3085 3090 3094 3098 3103 3110 3116 3122 3127 3130 3133 3136 3137 3141 3144 3146 3148 3149 3152 3154
3018 3020 3017 3017 3016 3018 3015 3015 3021 3029 3035 3035 3035 3035 3040 3041 3043 3045 3052 3058 3065 3069 3074 3078 3084 3089 3093 3097 3102 3106 3111 3116 3120 3123 3127 3130 3132 3134 3136 3139 3141 3143 3145 3147
3019 3023 3020 3022 3020 3020 3020 3024 3022 3027 3026 3032 3034 3034 3034 3037 3039 3043 3049 3054 3061 3067 3072 3077 3081 3086 3090 3095 3099 3102 3106 3109 3112 3117 3121 3124 3127 3128 3131 3133 3134 3136 3139 3141
3021 3021 3023 3019 3018 3020 3023 3024 3023 3023 3023 3024 3031 3032 3032 3030 3032 3040 3044 3050 3056 3062 3068 3073 3078 3081 3085 3089 3094 3098 3101 3103 3106 3110 3114 3117 3120 3122 3124 3126 3128 3129 3131 3133
3022 3018 3014 3014 3014 3014 3020 3022 3026 3018 3022 3020 3027 3030 3031 3031 3031 3033 3039 3045 3050 3054 3061 3067 3072 3076 3079 3083 3086 3090 3094 3097 3099 3103 3106 3108 3111 3114 3116 3117 3120 3122 3123 3125
3021 3016 3012 3005 3008 3010 3013 3019 3021 3025 3019 3022 3022 3024 3025 3028 3032 3037 3039 3042 3046 3051 3056 3062 3067 3070 3073 3077 3081 3083 3086 3088 3090 3093 3096 3099 3101 3104 3106 3108 3110 3112 3115 3117